UAE8412 OMDB-ZGGG

Flight info

Callsign UAE8412
Flight time N/A
Altitude 35000
Route IVURO M677 LALDO B505 NADSO A777 VAXIM L301 RASKI L639 BPL A791 JJS Q19 CEA B465 CTG A599 LINSO/K0915S1065 A599 GYA GYA8
Aircraft B77W/H-SDE1E2E3FGHIJ2J3J4J5M1RWXY/LB1D1

Departure

Time N/A
Airport Dubai International Airport (OMDB)

Arrival

Time 2026-05-05 11:00
Airport Guangzhou Baiyun International Airport (ZGGG)
Time Latitude Longitude Altitude Speed Heading
2026-05-05 10:54 23.18427 113.21169 3963 ft 233 kts 46°
2026-05-05 10:55 23.19546 113.22407 3965 ft 219 kts 46°
2026-05-05 10:55 23.20569 113.23540 3951 ft 200 kts 46°
2026-05-05 10:55 23.21514 113.24588 3903 ft 185 kts 46°
2026-05-05 10:55 23.22421 113.25593 3748 ft 182 kts 46°
2026-05-05 10:56 23.23292 113.26557 3558 ft 178 kts 46°
2026-05-05 10:56 23.24263 113.27277 3320 ft 160 kts 21°
2026-05-05 10:56 23.24636 113.27419 2435 ft 157 kts 18°
2026-05-05 10:56 23.25662 113.27746 2236 ft 149 kts 16°
2026-05-05 10:57 23.26659 113.28014 2055 ft 145 kts 15°
2026-05-05 10:57 23.27634 113.28273 1877 ft 143 kts 15°
2026-05-05 10:57 23.28604 113.28533 1697 ft 142 kts 15°
2026-05-05 10:57 23.29571 113.28793 1515 ft 143 kts 15°
2026-05-05 10:58 23.30543 113.29054 1327 ft 143 kts 15°
2026-05-05 10:58 23.31513 113.29314 1144 ft 142 kts 15°
2026-05-05 10:58 23.32478 113.29559 944 ft 142 kts 13°
2026-05-05 10:58 23.33445 113.29779 735 ft 142 kts 15°
2026-05-05 10:59 23.34408 113.30084 567 ft 141 kts 18°
2026-05-05 10:59 23.35360 113.30351 442 ft 141 kts 13°
2026-05-05 10:59 23.36328 113.30580 279 ft 141 kts 15°
2026-05-05 10:59 23.37285 113.30853 74 ft 139 kts 16°
2026-05-05 11:00 23.38132 113.31084 57 ft 101 kts 13°
2026-05-05 11:00 23.38667 113.31235 57 ft 57 kts 14°
2026-05-05 11:00 23.38962 113.31324 57 ft 38 kts 26°
2026-05-05 11:00 23.39120 113.31464 57 ft 0 kts 44°
2026-05-05 11:01 23.39128 113.31471 57 ft 5 kts 43°
2026-05-05 11:01 23.39187 113.31531 57 ft 17 kts 40°
2026-05-05 11:02 23.39320 113.31612 57 ft 26 kts 14°
2026-05-05 11:02 23.39512 113.31664 57 ft 28 kts 14°
2026-05-05 11:02 23.39706 113.31717 57 ft 28 kts 14°
2026-05-05 11:02 23.39898 113.31769 57 ft 27 kts 13°
2026-05-05 11:03 23.40078 113.31817 57 ft 26 kts 14°
2026-05-05 11:03 23.40252 113.31864 57 ft 24 kts 14°
2026-05-05 11:03 23.40416 113.31909 57 ft 23 kts 13°
2026-05-05 11:03 23.40576 113.31952 57 ft 23 kts 14°
2026-05-05 11:04 23.40737 113.31980 57 ft 21 kts 335°
2026-05-05 11:04 23.40788 113.31838 57 ft 20 kts 283°
2026-05-05 11:04 23.40822 113.31690 57 ft 19 kts 284°
2026-05-05 11:04 23.40855 113.31547 57 ft 18 kts 284°
2026-05-05 11:05 23.40887 113.31408 57 ft 19 kts 284°
2026-05-05 11:05 23.40920 113.31267 57 ft 18 kts 284°
2026-05-05 11:05 23.40914 113.31142 57 ft 17 kts 218°
2026-05-05 11:05 23.40797 113.31103 57 ft 18 kts 193°
2026-05-05 11:06 23.40656 113.31066 57 ft 21 kts 193°
2026-05-05 11:06 23.40494 113.31027 57 ft 23 kts 192°
2026-05-05 11:06 23.40317 113.30985 57 ft 26 kts 193°
2026-05-05 11:06 23.40134 113.30922 57 ft 28 kts 196°
2026-05-05 11:07 23.39933 113.30868 57 ft 28 kts 192°
2026-05-05 11:07 23.39764 113.30823 57 ft 21 kts 194°
2026-05-05 11:07 23.39738 113.30754 57 ft 9 kts 300°
2026-05-05 11:07 23.39776 113.30694 57 ft 9 kts 287°
2026-05-05 11:08 23.39780 113.30650 57 ft 0 kts 265°
2026-05-05 11:08 23.39778 113.30634 57 ft 3 kts 261°
2026-05-05 11:08 23.39774 113.30608 57 ft 3 kts 260°
2026-05-05 11:08 23.39773 113.30604 57 ft 0 kts 260°